Weather History for Entrance, BC

Change the Weather History Date:

Sunday, May 5, 2013

  Actual Average Record
Temperature  
Mean Temperature 60 °F -  
Max Temperature 67 °F - - ()
Min Temperature 53 °F - - ()
Degree Days  
Heating Degree Days 5    
Growing Degree Days 10 (Base 50)    
Moisture  
Dew Point 47 °F    
Average Humidity 63    
Maximum Humidity 75    
Minimum Humidity 41    
Precipitation  
Precipitation 0.00 in - - ()
Sea Level Pressure  
Sea Level Pressure 29.91 in    
Wind  
Wind Speed 12 mph ()    
Max Wind Speed 22 mph    
Max Gust Speed -    
T = Trace of Precipitation, MM = Missing Value Source: Averaged Metar Reports

Daily Weather History Graph

Daily Weather History Graph

Search for Another Location

Airport:

Trip Planner

Search our weather history database for the weather conditions in past years. The results will help you decide how hot, cold, wet, or windy it might be!

Date:

Astronomy

May. 05, 2013 Rise Set
Actual Time 5:46 AM PDT 8:38 PM PDT
Civil Twilight 5:09 AM PDT 9:14 PM PDT
Nautical Twilight 4:22 AM PDT 10:02 PM PDT
Astronomical Twilight 3:26 AM PDT 10:59 PM PDT
Moon 3:42 AM PDT (5/5) 4:23 PM PDT (5/5)
Length of Visible Light 16h 05m
Length of Day
14h 51m
Waning Crescent, 17% of the Moon is Illuminated
May 5
Waning Crescent
May 9
New
May 17
First Quarter
May 24
Full
May 31
Last Quarter

Hourly Weather History & Observations

Time (PDT) Temp. Dew Point Humidity Pressure Visibility Wind Dir Wind Speed Gust Speed Precip Events Conditions
12:00 AM 57.6 °F 47.1 °F 68% 30.02 in - WNW 9.2 mph - N/A   Unknown
1:00 AM 57.0 °F 47.7 °F 71% 30.02 in - WNW 10.4 mph - N/A   Unknown
2:00 AM 58.6 °F 48.2 °F 68% 30.01 in - NNW 19.6 mph - N/A   Unknown
3:00 AM 58.1 °F 47.7 °F 68% 30.01 in - NNW 21.9 mph - N/A   Unknown
4:00 AM 57.0 °F 47.8 °F 71% 30.00 in - NNW 20.7 mph - N/A   Unknown
5:00 AM 57 °F 47 °F 61% 30.00 in - NW 16.1 mph - -  
5:00 AM 57.0 °F 47.3 °F 70% 30.00 in - NW 16.1 mph - N/A   Unknown
6:00 AM 56.3 °F 47.3 °F 72% 29.99 in - NNW 18.4 mph - N/A   Unknown
7:00 AM 55.6 °F 47.7 °F 75% 29.99 in - NW 18.4 mph - N/A   Unknown
8:00 AM 55.9 °F 46.8 °F 71% 29.99 in - NW 11.5 mph - N/A   Unknown
9:00 AM 55.6 °F 47.3 °F 74% 29.99 in - NNW 15.0 mph - N/A   Unknown
10:00 AM 56.1 °F 46.6 °F 70% 29.98 in - WNW 11.5 mph - N/A   Unknown
11:00 AM 57 °F 47 °F 59% 29.96 in - WNW 11.5 mph - -  
11:00 AM 57.0 °F 46.6 °F 68% 29.96 in - WNW 11.5 mph - N/A   Unknown
12:00 PM 57.7 °F 47.1 °F 68% 29.95 in - WNW 8.1 mph - N/A   Unknown
1:00 PM 58.5 °F 47.7 °F 67% 29.92 in - NW 10.4 mph - N/A   Unknown
2:00 PM 59.5 °F 46.9 °F 63% 29.90 in - WNW 10.4 mph - N/A   Unknown
3:00 PM 61.7 °F 45.9 °F 56% 29.87 in - NW 9.2 mph - N/A   Unknown
4:00 PM 61.9 °F 46.0 °F 56% 29.85 in - West 8.1 mph - N/A   Unknown
5:00 PM 61 °F 48 °F 53% 29.82 in - NW 10.4 mph - -  
5:00 PM 60.8 °F 48.2 °F 63% 29.82 in - NW 10.4 mph - N/A   Unknown
6:00 PM 63.7 °F 46.4 °F 53% 29.80 in - West 6.9 mph - N/A   Unknown
7:00 PM 65.1 °F 45.7 °F 49% 29.79 in - WNW 9.2 mph - N/A   Unknown
8:00 PM 67.5 °F 43.0 °F 41% 29.78 in - WNW 12.7 mph - N/A   Unknown
9:00 PM 64.0 °F 46.2 °F 52% 29.78 in - WNW 8.1 mph - N/A   Unknown
10:00 PM 63.3 °F 47.1 °F 56% 29.78 in - WNW 8.1 mph - N/A   Unknown
11:00 PM 59 °F 49 °F 62% 29.79 in - WNW 8.1 mph - -  
11:00 PM 59.2 °F 49.5 °F 70% 29.79 in - WNW 8.1 mph - N/A   Unknown